Time,TemperatureF,DewpointF,PressureIn,WindDirection,WindDirectionDegrees,WindSpeedMPH,WindSpeedGustMPH,Humidity,HourlyPrecipIn,Conditions,Clouds,dailyrainin,SoftwareType,DateUTC
2013-04-28 00:11:00,51.5,48.0,30.27,South,188,5.0,-999.0,86,-99.99,,,0.00,weatherlink.com 1.10,2013-04-28 04:11:00,
2013-04-28 00:26:00,51.4,47.0,30.27,South,190,6.0,-999.0,86,-99.99,,,0.00,weatherlink.com 1.10,2013-04-28 04:26:00,
2013-04-28 00:41:00,51.4,47.0,30.27,South,188,6.0,-999.0,86,-99.99,,,0.00,weatherlink.com 1.10,2013-04-28 04:41:00,
2013-04-28 00:56:00,51.4,47.0,30.27,South,186,4.0,-999.0,86,-99.99,,,0.00,weatherlink.com 1.10,2013-04-28 04:56:00,
2013-04-28 01:11:00,51.4,48.0,30.26,South,185,3.0,-999.0,87,-99.99,,,0.00,weatherlink.com 1.10,2013-04-28 05:11:00,
2013-04-28 01:26:00,51.3,48.0,30.25,South,184,3.0,-999.0,88,-99.99,,,0.00,weatherlink.com 1.10,2013-04-28 05:26:00,
2013-04-28 01:41:00,51.4,48.0,30.25,South,178,5.0,-999.0,88,-99.99,,,0.00,weatherlink.com 1.10,2013-04-28 05:41:00,
2013-04-28 01:57:00,51.4,48.0,30.25,South,175,3.0,-999.0,89,-99.99,,,0.00,weatherlink.com 1.10,2013-04-28 05:57:00,
2013-04-28 02:12:00,51.5,49.0,30.24,South,173,4.0,-999.0,90,-99.99,,,0.00,weatherlink.com 1.10,2013-04-28 06:12:00,
2013-04-28 02:27:00,51.4,49.0,30.24,South,184,3.0,-999.0,91,-99.99,,,0.00,weatherlink.com 1.10,2013-04-28 06:27:00,
2013-04-28 02:42:00,51.3,49.0,30.24,South,185,3.0,-999.0,91,-99.99,,,0.00,weatherlink.com 1.10,2013-04-28 06:42:00,
2013-04-28 02:57:00,51.2,49.0,30.23,South,185,3.0,-999.0,92,-99.99,,,0.00,weatherlink.com 1.10,2013-04-28 06:57:00,
2013-04-28 03:12:00,51.2,49.0,30.23,South,185,3.0,-999.0,92,-99.99,,,0.00,weatherlink.com 1.10,2013-04-28 07:12:00,
2013-04-28 03:27:00,51.0,49.0,30.23,South,185,3.0,-999.0,92,-99.99,,,0.00,weatherlink.com 1.10,2013-04-28 07:27:00,
2013-04-28 03:42:00,50.6,48.0,30.23,South,185,3.0,-999.0,92,-99.99,,,0.00,weatherlink.com 1.10,2013-04-28 07:42:00,
2013-04-28 03:57:00,50.2,48.0,30.23,South,186,4.0,-999.0,92,-99.99,,,0.00,weatherlink.com 1.10,2013-04-28 07:57:00,
2013-04-28 04:12:00,49.9,48.0,30.23,South,186,3.0,-999.0,92,-99.99,,,0.00,weatherlink.com 1.10,2013-04-28 08:12:00,
2013-04-28 04:27:00,49.7,48.0,30.23,South,186,3.0,-999.0,92,-99.99,,,0.00,weatherlink.com 1.10,2013-04-28 08:27:00,
2013-04-28 04:42:00,49.4,47.0,30.23,South,186,1.0,-999.0,91,-99.99,,,0.00,weatherlink.com 1.10,2013-04-28 08:42:00,
2013-04-28 04:58:00,49.1,47.0,30.22,South,186,0.0,-999.0,91,-99.99,,,0.00,weatherlink.com 1.10,2013-04-28 08:58:00,
2013-04-28 05:13:00,48.9,46.0,30.22,South,186,0.0,-999.0,91,-99.99,,,0.00,weatherlink.com 1.10,2013-04-28 09:13:00,
2013-04-28 05:28:00,49.0,47.0,30.22,South,186,3.0,-999.0,92,-99.99,,,0.00,weatherlink.com 1.10,2013-04-28 09:28:00,
2013-04-28 05:43:00,49.5,47.0,30.23,South,185,2.0,-999.0,92,-99.99,,,0.00,weatherlink.com 1.10,2013-04-28 09:43:00,
2013-04-28 05:58:00,51.0,49.0,30.23,South,183,3.0,-999.0,92,-99.99,,,0.00,weatherlink.com 1.10,2013-04-28 09:58:00,
2013-04-28 06:13:00,51.2,49.0,30.22,South,176,4.0,-999.0,93,-99.99,,,0.00,weatherlink.com 1.10,2013-04-28 10:13:00,
2013-04-28 06:28:00,51.2,49.0,30.23,SSE,167,2.0,-999.0,93,-99.99,,,0.00,weatherlink.com 1.10,2013-04-28 10:28:00,
2013-04-28 06:43:00,51.3,50.0,30.23,SSE,167,3.0,-999.0,94,-99.99,,,0.00,weatherlink.com 1.10,2013-04-28 10:43:00,
2013-04-28 06:58:00,51.5,50.0,30.24,SSE,167,2.0,-999.0,94,-99.99,,,0.00,weatherlink.com 1.10,2013-04-28 10:58:00,
2013-04-28 07:13:00,51.8,50.0,30.24,SSE,167,2.0,-999.0,94,-99.99,,,0.00,weatherlink.com 1.10,2013-04-28 11:13:00,
2013-04-28 07:28:00,52.3,51.0,30.25,SSE,167,1.0,-999.0,94,-99.99,,,0.00,weatherlink.com 1.10,2013-04-28 11:28:00,
2013-04-28 07:43:00,52.6,51.0,30.26,SSE,167,1.0,-999.0,93,-99.99,,,0.00,weatherlink.com 1.10,2013-04-28 11:43:00,
2013-04-28 07:59:00,52.8,51.0,30.27,SSE,168,4.0,-999.0,93,-99.99,,,0.00,weatherlink.com 1.10,2013-04-28 11:59:00,
2013-04-28 08:14:00,53.2,51.0,30.27,SSE,168,1.0,-999.0,93,-99.99,,,0.00,weatherlink.com 1.10,2013-04-28 12:14:00,
2013-04-28 08:29:00,53.6,51.0,30.27,SSE,168,3.0,-999.0,92,-99.99,,,0.00,weatherlink.com 1.10,2013-04-28 12:29:00,
2013-04-28 08:44:00,54.1,52.0,30.27,SSE,168,4.0,-999.0,91,-99.99,,,0.00,weatherlink.com 1.10,2013-04-28 12:44:00,
2013-04-28 08:59:00,54.3,52.0,30.27,SSE,165,6.0,-999.0,90,-99.99,,,0.00,weatherlink.com 1.10,2013-04-28 12:59:00,
2013-04-28 09:14:00,54.3,51.0,30.27,SE,136,5.0,-999.0,88,-99.99,,,0.00,weatherlink.com 1.10,2013-04-28 13:14:00,
2013-04-28 09:29:00,55.0,51.0,30.27,SE,126,5.0,-999.0,87,-99.99,,,0.00,weatherlink.com 1.10,2013-04-28 13:29:00,
2013-04-28 09:44:00,55.2,51.0,30.27,ESE,110,5.0,-999.0,86,-99.99,,,0.00,weatherlink.com 1.10,2013-04-28 13:44:00,
2013-04-28 09:59:00,55.4,51.0,30.27,ESE,122,6.0,-999.0,84,-99.99,,,0.00,weatherlink.com 1.10,2013-04-28 13:59:00,
2013-04-28 10:15:00,55.8,51.0,30.27,ESE,122,4.0,-999.0,83,-99.99,,,0.00,weatherlink.com 1.10,2013-04-28 14:15:00,
2013-04-28 10:30:00,56.5,50.0,30.27,ESE,113,6.0,-999.0,80,-99.99,,,0.00,weatherlink.com 1.10,2013-04-28 14:30:00,
2013-04-28 10:45:00,56.2,50.0,30.27,ESE,110,3.0,-999.0,80,-99.99,,,0.00,weatherlink.com 1.10,2013-04-28 14:45:00,
2013-04-28 11:00:00,55.4,48.0,30.27,SE,136,7.0,-999.0,76,-99.99,,,0.00,weatherlink.com 1.10,2013-04-28 15:00:00,
2013-04-28 11:15:00,55.4,48.0,30.27,SE,146,4.0,-999.0,75,-99.99,,,0.00,weatherlink.com 1.10,2013-04-28 15:15:00,
2013-04-28 11:30:00,54.9,46.0,30.28,SSE,166,6.0,-999.0,73,-99.99,,,0.00,weatherlink.com 1.10,2013-04-28 15:30:00,
2013-04-28 11:45:00,55.8,46.0,30.27,SSE,160,3.0,-999.0,70,-99.99,,,0.00,weatherlink.com 1.10,2013-04-28 15:45:00,
2013-04-28 12:00:00,55.9,46.0,30.27,SSE,153,5.0,-999.0,70,-99.99,,,0.00,weatherlink.com 1.10,2013-04-28 16:00:00,
2013-04-28 12:15:00,57.0,46.0,30.27,SE,139,4.0,-999.0,67,-99.99,,,0.00,weatherlink.com 1.10,2013-04-28 16:15:00,
2013-04-28 12:30:00,56.9,46.0,30.27,SE,134,10.0,-999.0,67,-99.99,,,0.00,weatherlink.com 1.10,2013-04-28 16:30:00,
2013-04-28 12:45:00,57.0,45.0,30.27,SE,141,3.0,-999.0,65,-99.99,,,0.00,weatherlink.com 1.10,2013-04-28 16:45:00,
2013-04-28 13:01:00,56.9,45.0,30.27,SE,127,7.0,-999.0,65,-99.99,,,0.00,weatherlink.com 1.10,2013-04-28 17:01:00,
2013-04-28 13:16:00,57.5,45.0,30.26,SE,127,6.0,-999.0,63,-99.99,,,0.00,weatherlink.com 1.10,2013-04-28 17:16:00,
2013-04-28 13:31:00,58.3,45.0,30.26,SE,126,6.0,-999.0,61,-99.99,,,0.00,weatherlink.com 1.10,2013-04-28 17:31:00,
2013-04-28 13:46:00,58.1,44.0,30.25,SE,139,1.0,-999.0,59,-99.99,,,0.00,weatherlink.com 1.10,2013-04-28 17:46:00,
2013-04-28 14:01:00,58.1,44.0,30.25,SE,128,7.0,-999.0,59,-99.99,,,0.00,weatherlink.com 1.10,2013-04-28 18:01:00,
2013-04-28 14:16:00,57.5,44.0,30.25,SE,125,7.0,-999.0,61,-99.99,,,0.00,weatherlink.com 1.10,2013-04-28 18:16:00,
2013-04-28 14:46:00,58.3,45.0,30.24,SE,135,9.0,-999.0,61,-99.99,,,0.00,weatherlink.com 1.10,2013-04-28 18:46:00,
2013-04-28 15:01:00,57.9,46.0,30.24,SE,129,6.0,-999.0,64,-99.99,,,0.00,weatherlink.com 1.10,2013-04-28 19:01:00,
2013-04-28 15:16:00,57.6,47.0,30.24,SE,141,12.0,-999.0,69,-99.99,,,0.00,weatherlink.com 1.10,2013-04-28 19:16:00,
2013-04-28 15:31:00,57.3,49.0,30.24,SE,129,7.0,-999.0,73,-99.99,,,0.00,weatherlink.com 1.10,2013-04-28 19:31:00,
2013-04-28 15:46:00,56.7,48.0,30.23,SE,136,7.0,-999.0,73,-99.99,,,0.00,weatherlink.com 1.10,2013-04-28 19:46:00,
2013-04-28 16:02:00,56.8,47.0,30.22,SE,135,6.0,-999.0,69,-99.99,,,0.00,weatherlink.com 1.10,2013-04-28 20:02:00,
2013-04-28 16:18:00,56.5,46.0,30.22,SE,139,4.0,-999.0,67,-99.99,,,0.00,weatherlink.com 1.10,2013-04-28 20:18:00,
2013-04-28 16:32:00,56.5,46.0,30.22,SSE,158,4.0,-999.0,68,-99.99,,,0.00,weatherlink.com 1.10,2013-04-28 20:32:00,
2013-04-28 16:47:00,56.5,45.0,30.21,SE,146,5.0,-999.0,65,-99.99,,,0.00,weatherlink.com 1.10,2013-04-28 20:47:00,
2013-04-28 17:02:00,56.7,46.0,30.20,SE,140,6.0,-999.0,67,-99.99,,,0.00,weatherlink.com 1.10,2013-04-28 21:02:00,
2013-04-28 17:17:00,56.3,45.0,30.19,SE,129,5.0,-999.0,67,-99.99,,,0.00,weatherlink.com 1.10,2013-04-28 21:17:00,
2013-04-28 17:32:00,56.2,46.0,30.19,SE,124,6.0,-999.0,68,-99.99,,,0.00,weatherlink.com 1.10,2013-04-28 21:32:00,
2013-04-28 17:47:00,56.2,47.0,30.18,ESE,104,7.0,-999.0,71,-99.99,,,0.00,weatherlink.com 1.10,2013-04-28 21:47:00,
2013-04-28 18:02:00,55.8,47.0,30.18,ESE,113,9.0,-999.0,72,-99.99,,,0.00,weatherlink.com 1.10,2013-04-28 22:02:00,
2013-04-28 18:17:00,55.8,48.0,30.18,ESE,114,7.0,-999.0,74,-99.99,,,0.00,weatherlink.com 1.10,2013-04-28 22:17:00,
2013-04-28 18:32:00,55.7,47.0,30.18,ESE,117,5.0,-999.0,72,-99.99,,,0.00,weatherlink.com 1.10,2013-04-28 22:32:00,
2013-04-28 18:47:00,55.5,47.0,30.17,ESE,112,10.0,-999.0,72,-99.99,,,0.00,weatherlink.com 1.10,2013-04-28 22:47:00,
2013-04-28 19:02:00,55.4,47.0,30.17,ESE,105,9.0,-999.0,73,-99.99,,,0.00,weatherlink.com 1.10,2013-04-28 23:02:00,
2013-04-28 19:18:00,55.5,47.0,30.16,ESE,108,5.0,-999.0,73,-99.99,,,0.00,weatherlink.com 1.10,2013-04-28 23:18:00,
2013-04-28 19:33:00,55.2,47.0,30.17,East,89,4.0,-999.0,74,-99.99,,,0.00,weatherlink.com 1.10,2013-04-28 23:33:00,
2013-04-28 19:48:00,55.1,47.0,30.17,ESE,105,5.0,-999.0,74,-99.99,,,0.00,weatherlink.com 1.10,2013-04-28 23:48:00,
2013-04-28 20:03:00,55.1,47.0,30.16,ESE,105,5.0,-999.0,74,-99.99,,,0.00,weatherlink.com 1.10,2013-04-29 00:03:00,
2013-04-28 20:18:00,55.2,48.0,30.15,ESE,106,6.0,-999.0,76,-99.99,,,0.00,weatherlink.com 1.10,2013-04-29 00:18:00,
2013-04-28 20:33:00,55.1,48.0,30.16,ESE,108,5.0,-999.0,78,-99.99,,,0.00,weatherlink.com 1.10,2013-04-29 00:33:00,
2013-04-28 20:48:00,55.0,49.0,30.16,ESE,105,6.0,-999.0,81,-99.99,,,0.00,weatherlink.com 1.10,2013-04-29 00:48:00,
2013-04-28 21:03:00,54.9,50.0,30.16,ESE,109,8.0,-999.0,83,-99.99,,,0.00,weatherlink.com 1.10,2013-04-29 01:03:00,
2013-04-28 21:18:00,54.7,50.0,30.16,SE,128,8.0,-999.0,85,-99.99,,,0.00,weatherlink.com 1.10,2013-04-29 01:18:00,
2013-04-28 21:33:00,54.7,51.0,30.17,SE,125,4.0,-999.0,87,-99.99,,,0.00,weatherlink.com 1.10,2013-04-29 01:33:00,
2013-04-28 21:48:00,54.9,51.0,30.17,SE,127,9.0,-999.0,87,-99.99,,,0.00,weatherlink.com 1.10,2013-04-29 01:48:00,
2013-04-28 22:03:00,54.9,52.0,30.17,ESE,123,6.0,-999.0,88,-99.99,,,0.00,weatherlink.com 1.10,2013-04-29 02:03:00,
2013-04-28 22:18:00,54.9,52.0,30.16,ESE,113,4.0,-999.0,88,-99.99,,,0.00,weatherlink.com 1.10,2013-04-29 02:18:00,
2013-04-28 22:34:00,54.9,52.0,30.17,SE,127,5.0,-999.0,88,-99.99,,,0.00,weatherlink.com 1.10,2013-04-29 02:34:00,
2013-04-28 22:49:00,54.9,52.0,30.17,SE,129,5.0,-999.0,88,-99.99,,,0.00,weatherlink.com 1.10,2013-04-29 02:49:00,
2013-04-28 23:04:00,54.9,51.0,30.16,SE,129,6.0,-999.0,87,-99.99,,,0.00,weatherlink.com 1.10,2013-04-29 03:04:00,
2013-04-28 23:19:00,55.0,52.0,30.16,SE,124,5.0,-999.0,88,-99.99,,,0.00,weatherlink.com 1.10,2013-04-29 03:19:00,
2013-04-28 23:34:00,55.0,52.0,30.16,ESE,120,6.0,-999.0,88,-99.99,,,0.00,weatherlink.com 1.10,2013-04-29 03:34:00,
2013-04-28 23:49:00,55.0,52.0,30.16,ESE,116,5.0,-999.0,88,-99.99,,,0.00,weatherlink.com 1.10,2013-04-29 03:49:00,